Powrót do katalogu

STARLINK-5672

AktywnyŁącznośćVLEO
NORAD 55468·PAYLOAD·🇺🇸 United States

Wystrzelony Feb 2, 2023 z Cape Canaveral Space Force Station

Loading…

Następne Przeloty (najbliższe 24 godziny)

TLE

ŚwieżeSource: CelesTrak SupGP

Epoka: Sep 15, 2026, 02:21 UTC

1 55468C 23015V   26258.09840278  .00021311  00000+0  77194-3 0  2586
2 55468  43.0022 339.0633 0001529 265.0564 300.6103 15.27565487    17

Śledź STARLINK-5672 w czasie rzeczywistym z AllMySat

Download on the App Store